| time (UTC) | temp F | wind direction | speed knots | gust knots | rain 1hr in | rain 24hr in | rain mn in | humidity % | barometer mb |
| 20260505194556 | 72 | 250 | 6.1 | 10.4 | 0.00 | 0.00 | 0.00 | 52 | 1008.3 |
| 20260505193056 | 72 | 227 | 5.2 | 12.2 | 0.00 | 0.00 | 0.00 | 52 | 1008.3 |
| 20260505191557 | 71 | 248 | 4.3 | 10.4 | 0.00 | 0.00 | 0.00 | 54 | 1008.3 |
| 20260505190053 | 70 | 262 | 4.3 | 9.6 | 0.00 | 0.00 | 0.00 | 53 | 1008.4 |
| 20260505184552 | 70 | 271 | 4.3 | 8.7 | 0.00 | 0.00 | 0.00 | 54 | 1008.5 |
| 20260505183050 | 69 | 240 | 7.0 | 13.0 | 0.00 | 0.00 | 0.00 | 54 | 1008.4 |
| 20260505181548 | 69 | 287 | 5.2 | 9.6 | 0.00 | 0.00 | 0.00 | 54 | 1008.5 |
| 20260505180048 | 68 | 242 | 6.1 | 9.6 | 0.00 | 0.00 | 0.00 | 57 | 1008.5 |
| 20260505174545 | 68 | 304 | 6.1 | 10.4 | 0.00 | 0.00 | 0.00 | 58 | 1008.5 |
| 20260505173042 | 67 | 281 | 7.8 | 12.2 | 0.00 | 0.00 | 0.00 | 58 | 1008.6 |
| 20260505171541 | 66 | 291 | 7.8 | 9.6 | 0.00 | 0.00 | 0.00 | 62 | 1008.5 |
| 20260505170040 | 65 | 315 | 6.1 | 11.3 | 0.00 | 0.00 | 0.00 | 62 | 1008.4 |
| 20260505164538 | 64 | 287 | 7.8 | 13.0 | 0.00 | 0.00 | 0.00 | 65 | 1008.4 |
| 20260505163034 | 63 | 269 | 7.8 | 12.2 | 0.00 | 0.00 | 0.00 | 66 | 1008.4 |
| 20260505161532 | 63 | 269 | 7.8 | 10.4 | 0.00 | 0.00 | 0.00 | 68 | 1008.4 |
| 20260505153026 | 60 | 281 | 5.2 | 10.4 | 0.00 | 0.00 | 0.00 | 72 | 1008.3 |
| 20260505151533 | 60 | 247 | 5.2 | 8.7 | 0.00 | 0.00 | 0.00 | 72 | 1008.3 |
| 20260505124512 | 56 | 263 | 5.2 | 11.3 | 0.00 | 0.00 | 0.00 | 77 | 1006.9 |
| 20260505123004 | 56 | 272 | 1.7 | 10.4 | 0.00 | 0.00 | 0.00 | 77 | 1006.7 |
| 20260505121504 | 56 | 240 | 1.7 | 13.0 | 0.00 | 0.00 | 0.00 | 78 | 1006.6 |
| 20260505120002 | 56 | 212 | 4.3 | 7.0 | 0.00 | 0.00 | 0.00 | 78 | 1006.6 |
| 20260505114600 | 58 | 188 | 3.5 | 9.6 | 0.00 | 0.00 | 0.00 | 75 | 1006.6 |
| 20260505113104 | 58 | 244 | 3.5 | 10.4 | 0.00 | 0.00 | 0.00 | 74 | 1006.4 |
| 20260505111559 | 57 | 254 | 2.6 | 10.4 | 0.00 | 0.00 | 0.00 | 77 | 1006.4 |
| 20260505101553 | 59 | 269 | 5.2 | 10.4 | 0.00 | 0.00 | 0.00 | 75 | 1006.0 |
| 20260505100044 | 60 | 315 | 7.0 | 15.6 | 0.00 | 0.00 | 0.00 | 73 | 1005.9 |
| 20260505094545 | 59 | 245 | 6.1 | 11.3 | 0.00 | 0.00 | 0.00 | 76 | 1005.8 |
| 20260505093050 | 59 | 223 | 2.6 | 5.2 | 0.00 | 0.00 | 0.00 | 76 | 1005.8 |
| 20260505091538 | 60 | 223 | 3.5 | 11.3 | 0.00 | 0.00 | 0.00 | 76 | 1005.7 |
| 20260505090037 | 60 | 279 | 7.8 | 13.0 | 0.00 | 0.00 | 0.00 | 76 | 1005.6 |
| 20260505084536 | 60 | 284 | 7.8 | 11.3 | 0.00 | 0.00 | 0.00 | 78 | 1005.6 |
| 20260505083040 | 60 | 259 | 7.0 | 10.4 | 0.00 | 0.00 | 0.00 | 77 | 1005.7 |
| 20260505081533 | 60 | 281 | 7.8 | 12.2 | 0.00 | 0.00 | 0.00 | 76 | 1005.5 |
| 20260505080031 | 60 | 254 | 7.0 | 12.2 | 0.00 | 0.00 | 0.00 | 76 | 1005.6 |
| 20260505074528 | 61 | 275 | 6.1 | 11.3 | 0.00 | 0.00 | 0.00 | 76 | 1005.5 |
| 20260505073026 | 61 | 262 | 4.3 | 7.0 | 0.00 | 0.00 | 0.00 | 75 | 1005.6 |
| 20260505071524 | 61 | 229 | 4.3 | 6.1 | 0.00 | 0.00 | 0.00 | 75 | 1005.5 |
| 20260505070025 | 61 | 242 | 7.8 | 13.0 | 0.00 | 0.00 | 0.00 | 75 | 1005.2 |
| 20260505064520 | 61 | 244 | 7.0 | 10.4 | 0.00 | 0.00 | 0.00 | 74 | 1005.1 |
| 20260505063020 | 62 | 223 | 6.1 | 10.4 | 0.00 | 0.00 | 0.00 | 73 | 1005.1 |
| 20260505061522 | 62 | 213 | 7.0 | 12.2 | 0.00 | 0.00 | 0.00 | 72 | 1005.1 |
| 20260505060019 | 63 | 237 | 7.0 | 13.9 | 0.00 | 0.00 | 0.00 | 70 | 1004.9 |
| 20260505054519 | 63 | 238 | 7.8 | 13.9 | 0.00 | 0.00 | 0.00 | 69 | 1004.9 |
| 20260505053023 | 64 | 247 | 9.6 | 14.8 | 0.00 | 0.00 | 0.00 | 68 | 1004.9 |
| 20260505051518 | 64 | 223 | 7.8 | 14.8 | 0.00 | 0.00 | 0.00 | 67 | 1004.8 |
| 20260505041517 | 66 | 269 | 12.2 | 20.9 | 0.00 | 0.00 | 0.00 | 62 | 1004.0 |
| 20260505040034 | 66 | 263 | 13.9 | 22.6 | 0.00 | 0.00 | 0.00 | 61 | 1003.8 |
| 20260505034527 | 66 | 268 | 14.8 | 22.6 | 0.00 | 0.00 | 0.00 | 61 | 1003.6 |
| 20260505033016 | 67 | 269 | 13.9 | 21.7 | 0.00 | 0.00 | 0.00 | 60 | 1003.3 |
| 20260505031515 | 67 | 271 | 14.8 | 22.6 | 0.00 | 0.00 | 0.00 | 60 | 1003.1 |
| 20260505030017 | 68 | 231 | 14.8 | 20.9 | 0.00 | 0.00 | 0.00 | 59 | 1003.0 |
| 20260505024513 | 69 | 251 | 13.9 | 21.7 | 0.00 | 0.00 | 0.00 | 58 | 1003.0 |
| 20260505023013 | 70 | 267 | 12.2 | 17.4 | 0.00 | 0.00 | 0.00 | 57 | 1003.0 |
| 20260505021513 | 70 | 262 | 13.9 | 18.2 | 0.00 | 0.00 | 0.00 | 56 | 1003.0 |
| 20260505020014 | 72 | 248 | 13.0 | 20.9 | 0.00 | 0.00 | 0.00 | 54 | 1002.9 |
| 20260505014514 | 73 | 252 | 13.9 | 20.0 | 0.00 | 0.00 | 0.00 | 52 | 1002.9 |
| 20260505013011 | 73 | 251 | 15.6 | 21.7 | 0.00 | 0.00 | 0.00 | 50 | 1003.0 |
| 20260505011510 | 74 | 269 | 14.8 | 18.2 | 0.00 | 0.00 | 0.00 | 49 | 1003.0 |
| 20260505010009 | 75 | 277 | 12.2 | 18.2 | 0.00 | 0.00 | 0.00 | 48 | 1003.2 |
| 20260505004512 | 76 | 264 | 9.6 | 15.6 | 0.00 | 0.00 | 0.00 | 47 | 1003.3 |
| 20260505003006 | 77 | 226 | 10.4 | 13.9 | 0.00 | 0.00 | 0.00 | 44 | 1003.3 |
| 20260505001505 | 78 | 230 | 11.3 | 14.8 | 0.00 | 0.00 | 0.00 | 43 | 1003.4 |
| 20260505000004 | 79 | 263 | 12.2 | 15.6 | 0.00 | 0.00 | 0.00 | 39 | 1003.4 |
| 20260504234503 | 79 | 262 | 11.3 | 17.4 | 0.00 | 0.00 | 0.00 | 36 | 1003.5 |
| 20260504233003 | 80 | 277 | 11.3 | 15.6 | 0.00 | 0.00 | 0.00 | 35 | 1003.5 |
| 20260504231502 | 80 | 272 | 11.3 | 15.6 | 0.00 | 0.00 | 0.00 | 31 | 1003.6 |
| 20260504230001 | 80 | 269 | 10.4 | 14.8 | 0.00 | 0.00 | 0.00 | 31 | 1003.6 |
| 20260504224604 | 80 | 267 | 8.7 | 14.8 | 0.00 | 0.00 | 0.00 | 33 | 1003.9 |
| 20260504223058 | 81 | 233 | 7.8 | 13.0 | 0.00 | 0.00 | 0.00 | 31 | 1004.0 |
| 20260504221555 | 81 | 208 | 7.0 | 13.0 | 0.00 | 0.00 | 0.00 | 33 | 1004.2 |
| 20260504214556 | 80 | 253 | 5.2 | 11.3 | 0.00 | 0.00 | 0.00 | 32 | 1004.4 |
| 20260504213108 | 80 | 251 | 7.0 | 9.6 | 0.00 | 0.00 | 0.00 | 34 | 1004.6 |
| 20260504211550 | 80 | 192 | 5.2 | 13.0 | 0.00 | 0.00 | 0.00 | 35 | 1004.7 |
| 20260504210049 | 80 | 212 | 5.2 | 12.2 | 0.00 | 0.00 | 0.00 | 37 | 1004.8 |
| 20260504204555 | 80 | 196 | 5.2 | 8.7 | 0.00 | 0.00 | 0.00 | 38 | 1005.0 |
| 20260504203049 | 80 | 166 | 3.5 | 7.0 | 0.00 | 0.00 | 0.00 | 35 | 1005.0 |
| 20260504201543 | 79 | 283 | 1.7 | 5.2 | 0.00 | 0.00 | 0.00 | 37 | 1005.2 |
| 20260504200041 | 79 | 174 | 1.7 | 5.2 | 0.00 | 0.00 | 0.00 | 38 | 1005.4 |